Theta_e
282 282 282 282 281 281 281 281 281 281 280 280 280 280 279 279 279 279 279 279 278 279 279 279 279 279 279 280 281 281 281 282 280 282 285 286 286 286 287 289 291 291 292
282 282 281 281 281 281 280 280 280 279 279 278 278 278 278 278 278 277 277 277 277 277 278 278 278 279 278 279 279 279 279 280 279 278 281 282 283 285 286 286 287 288 289
281 281 280 280 280 279 279 279 278 277 277 277 276 275 275 275 275 275 275 275 276 276 276 276 277 277 278 278 279 278 279 279 280 279 278 281 282 283 283 284 285 286 288
280 279 279 279 278 277 277 277 276 275 274 274 274 273 273 273 273 273 274 274 274 274 274 274 274 275 275 276 277 278 279 278 279 278 278 277 279 281 282 281 281 284 284
278 278 277 277 276 276 274 274 273 273 273 272 272 272 272 271 272 273 273 273 273 273 273 273 274 274 275 275 274 275 276 276 277 277 277 277 277 278 278 281 281 283 284
277 276 276 275 274 273 272 272 271 271 270 270 270 269 269 270 272 274 274 273 272 271 271 272 272 272 273 275 275 276 276 273 273 274 274 273 276 278 280 279 279 279 278
275 274 274 272 271 270 270 270 269 268 268 268 268 268 267 267 271 273 274 272 271 270 270 270 270 271 271 270 272 274 274 274 275 274 271 272 273 276 276 276 277 277 277
272 271 271 270 268 268 268 267 267 267 266 266 266 266 266 267 271 272 272 271 270 269 269 269 269 269 270 270 271 271 272 273 273 274 273 274 274 275 275 275 275 276 277
271 270 269 267 266 266 264 265 265 265 264 264 265 265 264 264 268 271 271 269 269 268 269 269 269 269 271 273 272 271 271 272 275 277 277 278 279 279 279 277 275 274 273
270 269 268 267 263 262 263 263 264 262 263 264 264 264 263 262 267 269 270 269 268 268 269 270 272 271 274 275 273 272 270 271 273 273 274 275 276 276 277 276 274 271 271
268 267 266 264 262 261 261 262 261 260 262 260 261 262 262 262 263 268 271 270 269 269 270 270 271 274 275 276 276 274 273 275 274 274 274 274 274 275 275 275 276 274 272
265 265 262 259 260 261 255 258 258 258 258 259 259 260 263 264 266 269 271 273 274 271 270 271 272 274 276 277 278 279 279 279 276 274 273 272 272 273 274 275 275 276 276
261 257 256 257 259 259 256 258 258 258 258 259 260 260 262 264 266 270 271 272 274 272 273 274 276 277 276 275 274 276 274 273 272 271 271 272 273 273 274 273 274 274 274
256 257 258 257 258 258 260 260 258 258 258 259 260 261 264 266 267 267 268 271 273 273 274 273 271 271 271 270 268 270 270 270 269 269 269 271 272 272 272 273 271 271 270
257 258 258 258 256 258 259 259 260 261 262 262 265 266 265 265 267 272 273 272 272 272 270 266 263 263 263 264 265 266 266 267 266 267 268 268 269 270 270 271 270 270 268
258 258 258 258 258 259 258 258 263 266 268 269 270 269 268 270 272 273 274 274 273 271 263 260 260 261 261 262 262 263 264 265 266 267 267 268 268 268 268 269 270 269 267
255 257 257 258 257 257 257 256 255 259 264 266 267 268 269 270 271 272 272 272 268 267 259 259 259 260 261 262 262 263 263 264 266 267 268 269 269 268 268 268 268 268 268
251 255 254 255 254 255 255 255 255 254 254 256 261 263 267 268 269 270 270 266 259 261 258 259 260 261 261 262 262 262 263 265 266 267 268 269 268 267 267 267 268 268 269
252 252 252 252 252 253 254 253 253 252 252 253 255 259 260 265 267 267 266 257 257 258 259 260 261 261 262 262 263 264 265 266 266 267 268 269 268 268 267 268 268 268 269
250 252 253 251 252 252 252 252 252 251 252 252 254 254 255 258 258 256 257 257 257 258 259 260 261 262 262 263 264 264 265 266 266 267 267 268 269 270 268 267 268 268 270
250 249 252 252 250 250 250 250 251 251 251 252 253 254 264 260 255 254 255 256 257 258 259 260 261 262 263 263 264 264 265 267 267 267 267 267 268 268 270 271 271 272 273
250 249 247 249 251 251 250 250 250 250 251 252 253 253 261 253 253 253 254 255 256 257 259 260 261 262 262 263 263 264 265 267 267 267 266 267 268 268 269 270 270 271 271
250 250 251 251 251 250 249 249 249 250 251 252 252 252 252 252 252 252 253 254 255 256 258 259 260 261 262 263 264 265 266 268 267 267 266 266 267 267 267 268 268 268 269
253 252 252 252 249 249 249 249 250 251 252 253 251 251 250 251 251 252 252 254 255 256 257 258 260 260 262 262 264 265 267 271 268 267 267 266 266 266 266 266 266 266 267
250 252 251 250 248 249 249 249 250 250 251 251 252 250 250 250 251 252 252 253 254 255 256 256 258 260 261 261 263 264 268 271 268 267 267 266 265 265 265 265 265 265 265
252 252 251 250 249 249 250 250 251 251 251 251 251 250 249 250 251 252 252 252 253 254 253 256 257 257 258 261 264 266 270 272 269 267 267 266 265 265 265 264 264 264 264
Wind_Speed
5 5 4 4 4 4 5 5 6 6 7 8 9 10 10 11 11 10 10 11 12 12 11 11 12 12 9 9 9 9 10 10 15 13 12 12 15 14 12 11 9 11 11
5 5 5 4 4 6 6 7 8 9 9 9 9 10 10 10 11 11 12 12 13 14 14 14 15 10 14 12 9 13 12 13 13 21 13 11 15 14 14 14 12 11 11
5 5 4 5 5 6 6 6 6 7 8 8 8 9 10 11 11 11 12 13 13 14 14 15 15 15 14 12 13 13 11 10 12 13 15 11 11 11 14 13 13 13 11
5 5 5 5 5 4 4 4 4 5 6 7 8 9 10 11 12 12 12 14 15 15 16 16 16 16 16 16 14 15 13 12 12 12 14 14 11 10 11 12 13 10 12
6 6 5 5 4 4 3 3 4 5 6 7 9 9 9 9 9 13 14 15 16 16 16 16 15 16 24 23 15 15 16 14 13 13 14 14 12 10 11 10 14 12 12
6 6 6 5 3 3 3 4 5 5 6 7 8 9 10 8 17 20 18 14 16 16 15 16 16 18 19 24 26 28 24 17 16 13 14 15 16 12 10 8 11 11 14
6 5 5 4 2 2 3 3 5 6 7 8 9 9 11 12 18 21 22 14 15 15 16 15 15 13 17 17 21 26 24 25 26 18 19 17 20 14 13 13 13 13 14
6 5 4 3 2 3 3 5 6 6 7 8 9 10 11 11 21 22 23 16 14 16 16 16 17 17 17 17 17 17 16 16 17 14 17 17 18 16 16 16 18 19 17
6 5 4 3 2 3 3 5 5 6 7 8 8 9 11 12 21 23 20 13 13 15 15 15 16 17 22 27 18 17 17 16 18 28 30 32 33 33 27 14 13 12 15
6 6 4 3 3 1 3 5 3 6 8 8 10 10 12 13 20 22 19 10 12 11 13 14 21 20 27 27 18 16 17 17 16 17 17 22 26 23 29 20 13 15 15
6 5 4 3 0 2 2 3 4 6 7 7 10 9 11 13 14 21 22 12 11 11 10 10 11 26 29 29 29 17 19 20 22 19 16 15 15 15 13 14 16 14 15
5 5 3 1 1 2 2 3 4 4 5 6 8 9 8 10 16 18 22 23 22 13 13 12 14 29 31 32 27 28 31 28 13 12 13 13 13 13 13 13 16 16 15
5 4 2 1 2 2 3 4 4 3 4 6 8 8 9 9 8 19 24 25 25 16 12 21 33 31 27 18 23 30 27 12 12 13 14 14 13 13 16 16 16 18 19
5 4 2 2 3 3 3 4 3 4 5 7 7 8 9 9 9 10 11 10 16 16 19 10 18 23 23 18 13 13 9 10 11 13 14 14 13 13 13 10 10 11 14
5 4 3 3 3 3 4 4 5 5 7 8 7 7 8 9 10 21 19 12 12 15 16 9 9 9 9 9 9 10 10 10 11 11 12 13 13 12 12 11 11 12 14
5 4 3 2 2 2 3 5 10 13 14 16 16 12 7 18 22 24 25 24 24 23 7 7 9 8 9 10 11 11 11 12 11 12 12 13 12 12 12 11 11 12 14
5 4 3 3 2 2 2 4 7 7 11 11 13 16 18 18 21 23 22 22 19 15 5 8 8 9 10 10 10 11 12 12 14 12 13 12 10 11 12 11 11 12 14
5 5 3 2 2 2 3 3 3 5 8 7 9 14 15 17 20 20 20 16 8 7 4 8 9 9 10 10 11 11 12 12 12 12 13 11 10 10 11 12 12 13 13
5 4 4 3 3 4 3 3 3 4 5 8 9 7 9 17 16 17 16 3 7 9 8 9 9 9 10 10 11 12 12 12 13 12 12 11 10 10 11 12 13 17 17
4 5 4 3 3 3 3 3 3 4 5 6 6 8 7 6 6 7 6 6 6 7 8 9 9 10 10 11 11 11 12 12 11 11 11 11 11 9 11 12 12 12 12
3 2 4 3 3 3 3 4 4 4 5 5 7 6 18 6 7 7 7 7 7 9 9 9 10 10 10 11 11 12 13 12 11 11 11 11 11 11 10 10 10 10 11
3 3 3 4 3 4 4 4 4 4 5 5 6 6 15 3 5 7 7 7 7 8 8 9 9 9 9 11 12 12 13 13 12 11 11 11 10 10 9 9 8 7 6
4 3 3 3 4 4 4 4 4 4 5 5 5 6 5 5 5 6 7 7 7 8 8 8 9 10 9 10 11 11 13 12 11 11 11 10 10 9 9 8 9 8 7
4 4 4 4 3 4 4 5 4 6 6 6 5 5 5 5 6 7 7 7 7 8 8 8 9 12 12 12 11 11 12 10 9 10 12 10 9 10 8 8 8 10 8
3 3 4 4 4 5 4 5 5 5 5 5 5 4 5 5 6 6 7 6 7 8 9 9 8 12 14 19 16 18 18 14 12 13 9 10 11 12 10 8 9 7 10
3 4 4 4 4 5 5 5 5 5 5 5 5 5 5 6 6 7 7 7 7 8 10 8 10 14 17 14 15 20 17 15 11 15 9 8 9 9 9 10 12 8 9
Wind_Direction
135 127 121 123 111 110 85 63 42 37 21 13 3 354 353 348 346 338 330 322 317 309 306 302 299 298 286 282 274 269 266 267 273 278 279 290 288 286 285 278 267 267 272
154 149 140 126 82 60 45 33 24 15 10 1 356 350 345 339 333 326 319 314 308 305 304 302 296 298 294 290 281 278 273 274 275 282 283 284 280 288 283 280 277 269 265
163 142 100 79 70 54 42 27 19 3 352 353 349 343 337 332 326 320 311 308 305 303 302 300 298 299 292 289 286 282 277 275 274 279 286 283 280 281 285 278 274 271 264
139 116 109 95 83 71 58 39 6 349 348 347 343 334 330 325 318 310 310 307 302 298 297 294 294 292 291 294 290 286 285 280 276 274 279 284 279 279 276 282 277 266 272
142 129 121 111 97 86 61 19 356 357 354 340 330 323 319 313 309 313 308 301 300 297 295 297 295 295 296 292 291 289 289 285 284 281 281 280 276 276 273 276 270 277 270
143 135 128 113 95 62 37 3 351 344 334 326 322 317 315 309 309 308 306 300 300 297 295 296 296 290 286 290 292 292 289 288 284 286 285 285 294 293 285 304 297 298 292
136 127 119 114 114 87 24 358 345 336 331 325 317 314 309 306 307 309 308 301 298 296 296 297 296 292 293 289 288 288 288 285 279 282 280 281 285 291 298 290 284 281 280
129 132 135 128 85 41 12 348 331 325 319 314 312 309 305 304 309 310 307 302 300 294 291 290 289 288 283 286 282 278 275 271 272 269 266 272 272 278 269 270 271 272 269
150 153 151 121 92 33 349 323 314 310 311 307 305 307 300 298 307 307 310 301 292 289 287 282 276 277 282 288 282 277 276 274 270 273 276 279 280 281 282 281 275 282 277
162 158 150 140 117 357 309 308 306 305 306 310 305 301 293 291 298 305 308 293 289 288 280 278 276 278 282 288 287 285 281 277 274 268 264 265 268 267 267 264 269 267 270
139 146 142 114 79 286 304 314 301 299 299 296 295 291 283 279 284 301 303 296 290 284 283 286 282 287 291 290 285 276 270 272 267 266 266 264 261 258 256 250 249 250 258
147 144 140 133 332 335 292 294 287 283 287 296 296 295 287 280 280 297 301 303 304 302 294 288 281 282 281 281 283 285 289 293 294 286 278 271 266 262 257 253 252 251 253
139 152 154 351 325 283 270 285 294 278 289 302 300 296 297 292 280 295 303 299 303 301 291 290 299 308 319 324 310 303 304 298 295 288 281 276 273 272 268 261 258 259 262
156 169 187 232 279 274 283 276 267 276 282 285 283 285 293 307 310 302 288 292 303 301 298 328 325 319 312 308 310 305 298 295 293 287 283 283 284 281 275 271 260 257 261
161 181 210 220 245 277 275 270 276 258 256 268 277 292 301 311 305 307 321 318 323 334 334 333 326 325 319 315 309 303 299 296 291 287 285 285 283 279 273 268 263 264 263
169 186 199 213 240 280 299 303 301 298 296 300 302 307 309 308 314 320 320 331 346 335 348 320 316 316 314 314 311 308 304 299 296 292 285 277 279 282 275 267 261 256 260
180 177 193 223 250 272 298 304 310 317 309 307 309 317 315 315 323 319 336 340 343 341 317 310 309 311 309 307 304 302 301 300 299 291 292 285 279 279 276 268 266 264 263
177 180 191 214 238 254 254 257 268 290 309 309 308 312 318 325 322 338 338 349 329 331 303 310 310 310 308 306 305 303 301 302 304 302 298 294 278 271 270 266 265 266 270
178 194 193 196 209 233 248 253 255 261 274 285 306 305 305 320 323 340 349 332 313 314 318 315 310 309 309 307 304 302 301 304 306 304 303 304 287 275 272 270 271 270 268
190 196 187 196 217 229 236 246 255 253 267 273 287 296 306 295 335 330 324 310 306 306 309 309 312 312 311 310 309 308 308 308 311 309 308 308 306 290 271 272 269 271 270
181 193 205 216 225 229 226 225 233 242 255 263 273 279 300 349 323 309 311 312 312 310 309 310 311 311 312 312 313 314 312 312 314 315 314 312 309 308 304 297 290 285 275
179 193 187 223 232 245 240 228 229 237 250 259 277 281 307 314 297 295 297 295 299 296 296 301 304 305 308 311 313 315 315 320 326 321 318 317 317 317 318 319 321 324 327
178 198 208 233 243 245 249 241 237 237 252 259 264 279 287 284 282 285 290 293 295 298 300 303 303 306 311 315 314 316 316 326 331 324 323 323 329 334 336 343 348 353 1
194 205 223 248 247 245 246 252 247 243 252 263 267 271 269 274 280 283 283 289 295 297 299 305 305 304 310 314 317 319 318 336 337 333 336 334 340 346 352 358 3 7 13
194 225 234 243 244 252 260 255 253 249 251 257 270 268 273 276 281 282 279 282 289 295 303 304 304 311 312 316 313 319 321 348 356 350 347 349 353 357 3 7 7 11 18
216 231 241 243 243 238 242 252 253 252 260 266 260 266 273 283 281 283 285 285 288 300 299 299 301 306 310 313 317 322 329 346 15 360 356 1 7 8 8 14 16 18 23